Regional Weather Roundup
Issued by NWS

Home | Current Version | Previous Version | Text Only | Print | Product List | Glossary Off
Versions: 1 2 3 4 5 6 7 8 9 10 11 12 13 14 15 16 17 18 19 20 21 22 23 24 25 26 27 28 29 30 31 32 33 34 35 36 37 38 39 40 41 42 43 44 45 46 47 48 49 50

000
ASUS43 KIND 041359
RWRIN

WEATHER ROUNDUP FOR INDIANA
NATIONAL WEATHER SERVICE INDIANAPOLIS IN
1000 AM EDT WED MAY 04 2016

NOTE: "FAIR" INDICATES FEW OR NO CLOUDS BELOW 12,000 FEET WITH NO
SIGNIFICANT WEATHER AND/OR OBSTRUCTIONS TO VISIBILITY.

* - STATION DOES NOT REPORT WEATHER SUCH AS PRECIPITATION OR FOG.

+ - STATION NOT QUALITY CONTROLLED BY THE NATIONAL WEATHER SERVICE.
    USE DATA WITH CAUTION...ESPECIALLY DEWPOINT AND RELATIVE
    HUMIDITY OBSERVATIONS.

INZ001>003-010>013-019-020-041500-
NORTHWEST INDIANA

CITY           SKY/WX    TMP DP  RH WIND       PRES   REMARKS
GARY /AIRPORT/ MOSUNNY   48  45  87 NW23G41   29.74R
RENSSELAER +   PTSUNNY   46  43  87 N14G23    29.71R

$$

LMZ046-743>745-041500-
SOUTHERN LAKE MICHIGAN

STATION/POSITION TIME  TEMP    WIND        PRES    WAVE
                       AIR SEA DIR/SP/G            HT
                 (UTC) (F)     (DEG/KT/KT) (MB)    (FT)
BURNS HARBOR     1305   43     350/ 28     1006.1R
MICHIGAN CITY    1300   42     340/ 30/ 33   N/A

$$

INZ004-005-014>016-021>024-041500-
NORTH CENTRAL INDIANA

CITY           SKY/WX    TMP DP  RH WIND       PRES   REMARKS
ELKHART        CLOUDY    46  46 100 NW16G23   29.63R
GOSHEN         CLOUDY    48  44  86 NW20G25   29.61R
SOUTH BEND     CLOUDY    43  41  93 NW15G23   29.66R

$$

INZ006>009-017-018-025>027-041500-
NORTHEAST INDIANA

CITY           SKY/WX    TMP DP  RH WIND       PRES   REMARKS
ANGOLA *+      CLOUDY    46  46 100 NW8       29.58R
FORT WAYNE     LGT RAIN  50  48  93 SW15      29.59F FOG

$$

INZ028-029-035-036-043>045-051>053-041500-
WEST CENTRAL INDIANA

CITY           SKY/WX    TMP DP  RH WIND       PRES   REMARKS
CRAWFORDSVL +  CLOUDY    50  50 100 NW10      29.69R
GREENCASTLE +  LGT RAIN  50  50 100 W3        29.70R
LAFAYETTE      CLOUDY    50  45  83 N16G25    29.69R
TERRE HAUTE    CLOUDY    53  49  86 W6        29.71R

$$

INZ030>032-037>040-046>048-054>057-064-065-041500-
CENTRAL INDIANA

CITY           SKY/WX    TMP DP  RH WIND       PRES   REMARKS
ANDERSON       LGT RAIN  50  50 100 SW6       29.66S
INDIANAPOLIS   CLOUDY    51  47  86 W14       29.67R
-EAGLE CREEK   CLOUDY    51  48  89 W8        29.67R
KOKOMO *+      CLOUDY    48  43  81 NW14G20   29.64R
SHELBYVILLE    CLOUDY    52  47  83 SW9       29.67F

$$

INZ033-034-041-042-049-050-058-059-041500-
EAST CENTRAL INDIANA

CITY           SKY/WX    TMP DP  RH WIND       PRES   REMARKS
MUNCIE         LGT RAIN  51  47  86 SW10      29.64S FOG

$$

INZ060-061-067>069-081>083-085>088-041500-
SOUTHWEST INDIANA

CITY           SKY/WX    TMP DP  RH WIND       PRES   REMARKS
EVANSVILLE     LGT RAIN  52  48  86 SW5       29.73F
HUNTINGBURG *+ CLOUDY    50  46  87 SE3       29.73F

$$

INZ062-063-066-070>080-084-089>092-041500-
SOUTH CENTRAL AND SOUTHEAST INDIANA

CITY           SKY/WX    TMP DP  RH WIND       PRES   REMARKS
BLOOMINGTON    CLOUDY    51  48  89 SW8       29.69S
MADISON *+     CLOUDY    50  45  81 SW6       29.75F
SEYMOUR +      RAIN      52  48  87 W13       29.72F

$$




USA.gov is the U.S. government's official web portal to all federal, state and local government web resources and services.